Showing default

YAOGAN-30 L, 43171

Orbit data source: Space-Track

YAOGAN-30 L, 43171 is a payload satellite owned by PLA SSF (CN) in LEO that was launched on Thu, 25 Jan 2018 UTC via a CHANG ZHENG 2C launch vehicle from the Xichang Space Center, China (XSC). Payloads include a variety of satellites, spacecraft, and rockets equipped with specific instruments for various scientific and technological missions. These include communications satellites like Starlink; space stations such as the ISS; scientific satellites like the Hubble; Earth observation satellites from companies like Planet Labs, Umbra, and HawkEye 360; GPS; miniature CubeSats for education and research; and military/defense satellites.

Loading next visibility...
YAOGAN-30 L details
Identifier
43171, 2018-011C
Orbit
LEO
Last TLE update6 hours ago
Origin
Flag of CNPLA SSF (CN / PRC)
ManufacturerSECM
MissionOperational Defense Sigint
Bus & MotorUnknown
Mass~500 kg wet, ~500 kg dry
Launch date (UTC)
2018-01-25 (7 years ago)
Launch vehicle
CHANG ZHENG 2C
Launch site
Xichang Space Center, China (XSC)
Object type
Payload
Rocket body
Debris
Shape & HBRBox + 2 Pan, 1 m
Radar Cross Section0.446 m², Large (>1 m²)

Expand to show TLE details & history

TLE from 6 hours ago
0 YAOGAN-30 L
1 43171U 18011C   24361.55526474  .00006549  00000-0  54351-3 0  9996
2 43171  34.9934 177.4795 0003531 340.2090  19.8480 14.98156405377404
Epoch: 2024-12-26T13:19Z
Definitive object data (Epoch: 2024-12-26T13:19:34.873Z)
Latitude0.00002°
Longitude-117.94876°
Altitude569.203 km
Speed7.58 km/s
True Right ascension11h 49m 55s
True Declination0° 00' 00"
Sunlit
Object was in daylight at TLE epoch
Visualization TLE readout
Latitude-30.67435°
Longitude117.99521°
Altitude580.441 km
Speed7.571 km/s
Apparent Right ascension04h 54m 37s
Apparent Declination-37° 04' 43"
Sunlit
Object is in daylight
Visualization observer readout
Local Sidereal Time18:34:41
Azimuth89.748° E
Elevation-70.283°
Doppler factor1
Orbital elements
Apogee altitude578.264 km
Perigee altitude573.353 km
Semi-major axis6,953.946 km
Eccentricity0.0003531
Inclination34.9934°
RAAN177.4795°
Arg. of periapsis340.209°
True anomaly19.86174°
Mean anomaly19.848°
Eccentric anomaly19.85487°
Mean motion3.7428 °/min
BSTAR0.00054351
Orbital period96.18 mins
Loading maneuver chart data...
Loading historical data...
Loading historical data...
Loading historical data...
Loading historical data...
Loading historical data...
Loading historical data...
Loading historical data...
Other satellites on launch #11 in the year 2018 (2018-01-25 UTC)

YAOGAN-30 L Visibility forecast

Observer location: undefined°, undefined

Span
Click to sort rows by Start time (UTC) header in descending order
Start Az.
Max El. time (UTC)
Max El. Az.
Max El.
End time (UTC)
End Az.
6 mins2024-12-26 20:10:03.830Z250.688° W2024-12-26 20:13:03.830Z197.642° SSW25.136°2024-12-26 20:16:03.830Z143.441° SSE
4 mins2024-12-27 15:09:03.830Z182.137° SSW2024-12-27 15:11:03.830Z148.108° SSE16.595°2024-12-27 15:13:03.830Z118.316° SE
6 mins2024-12-27 16:49:03.830Z227.732° WSW2024-12-27 16:52:03.830Z155.924° SSE30.468°2024-12-27 16:55:03.830Z106.057° ESE
6 mins2024-12-27 18:30:03.830Z248.102° W2024-12-27 18:33:03.830Z178.087° S32.907°2024-12-27 18:36:03.830Z120.637° SE
|